RS19S (SXC3-219 ISOI) (53381 NORAD) Tracking and Keplerian Element Data

This shows tracking and keplerian element data for the satellite.

Feedback or suggestion? Click here.




ElementValue
Catalog53381
NameRS19S (SXC3-219 ISOI)
Epoch Orbit745
Epoch Day270.19678692
Epoch Year2022
RAAN171.3455
Inclination97.4313
Eccentricity0.0002173
Argument of Perigee297.9059
Mean Anonmoly169.4453
Mean Motion15.25713587
Decay Rate8.503E-05
L11 53381U 22096M 22270.19678692 .00008503 00000+0 33629-3 0 9991
L22 53381 97.4313 171.3455 0002173 297.9059 169.4453 15.25713587 7451

Live tracking and technical data element details for RS19S (SXC3-219 ISOI) (NORAD 53381). RS19S (SXC3-219 ISOI) can be tracked NOW for your location showing map with azimuth and elevation plus other details from your city location.

Track the satellite on the map from your city or location and see movement details for azimuth, elevation, latitude, longitude, range, height, and movement on the map or in text.







IsCatalogInMostPopularTable: catalog: 53381, numindb: 2
Update: records affected: 1



GetName: 53381 RS19S (SXC3-219 ISOI)

Hit Count: updated at: Thu, 29 Sep 2022 11:18:51 GMT